[[[{"header":{"parameterUnit":"kt","parameterCategory":2,"dx":1,"dy":1,"la1":30.253999710083008,"la2":30.299108505249023,"lo1":-89.0895004272461,"lo2":-89.04439544677734,"nx":28,"ny":28,"refTime":"2022-10-24T21:00:00:Z","depth":0,"parameterNumber":1,"parameterNumberName":"U-component_of_WINDS"},"data":[11.5493,11.5789,11.5856,11.6223,11.6345,11.6607,11.6721,11.6876,11.7016,11.7334,11.7528,11.7625,11.7789,11.8035,11.8247,11.8285,11.837,11.8424,11.8459,11.8155,11.8117,11.8081,11.8016,11.8442,11.8443,11.8764,11.8767,11.8769,11.526,11.5385,11.56,11.5853,11.6037,11.6024,11.6224,11.6378,11.6612,11.6787,11.6982,11.7267,11.75,11.7649,11.7883,11.802,11.8027,11.8079,11.8069,11.8095,11.7773,11.7703,11.8069,11.8069,11.8069,11.8069,11.8069,11.8069,11.4854,11.5029,11.5222,11.5457,11.5602,11.5771,11.5949,11.6065,11.6274,11.653,11.6569,11.6834,11.702,11.7337,11.7458,11.7666,11.762,11.7697,11.7716,11.7734,11.7744,11.7269,11.7709,11.7708,11.7707,11.7706,11.7706,0,11.4578,11.4623,11.4834,11.5065,11.524,11.5425,11.5606,11.5718,11.5835,11.6003,11.6252,11.6406,11.671,11.695,11.7185,11.7298,11.73,11.7308,11.7362,11.7346,11.7301,11.7326,11.6796,11.7295,11.7292,11.7289,11.7287,11.7286,11.4172,11.4369,11.4604,11.4743,11.486,11.5083,11.5229,11.5318,11.5469,11.5704,11.5854,11.6096,11.6295,11.6681,11.6812,11.7039,11.7042,11.7225,11.7076,11.7053,11.7044,11.7031,11.705,11.7252,11.7256,11.726,11.7263,0,11.3936,11.4048,11.4374,11.4589,11.4648,11.4849,11.5032,11.5209,11.5302,11.556,11.5625,11.5771,11.6013,11.6117,11.6414,11.646,11.6788,11.6786,11.6723,11.6728,11.6901,11.6883,11.7448,11.7526,11.7086,11.7091,11.7094,0,11.3634,11.3889,11.4039,11.4223,11.4509,11.4592,11.4872,11.498,11.5144,11.5348,11.5369,11.5559,11.5661,11.5866,11.5935,11.6222,11.6278,11.633,11.6345,11.6328,11.6321,11.6408,11.6386,11.6373,11.637,11.6367,11.6365,0,11.3253,11.3634,11.3933,11.4037,11.4292,11.443,11.4542,11.4727,11.487,11.5071,11.5164,11.5393,11.5518,11.5693,11.5779,11.5674,11.6133,11.6007,11.6186,11.6184,11.6281,11.6274,11.675,11.6361,11.636,11.6359,11.6358,0,11.3025,11.323,11.3649,11.386,11.3957,11.4154,11.4385,11.4578,11.4772,11.4828,11.4988,11.5014,11.5275,11.5141,11.5501,11.534,11.5461,11.5535,11.555,11.5578,11.5426,11.5679,11.6123,11.6173,11.5605,11.5599,11.5593,0,11.2559,11.3011,11.3087,11.3482,11.3705,11.3714,11.3935,11.4106,11.42,11.4402,11.4505,11.4734,11.4657,11.4743,11.4907,11.5022,11.5232,11.4997,11.5283,11.5292,11.523,11.564,11.568,11.6014,11.5515,11.5523,11.5529,0,11.2211,11.252,11.2586,11.2708,11.295,11.3138,11.3391,11.3637,11.3767,11.3958,11.4171,11.4496,11.4451,11.4593,11.4638,11.4804,11.5092,11.4733,11.4739,11.4793,11.5484,11.552,11.5576,11.5086,11.5095,11.5103,11.5466,0,11.184,11.2082,11.2264,11.2534,11.2695,11.2949,11.3062,11.3216,11.3243,11.3337,11.3653,11.3822,11.4072,11.4163,11.4192,11.454,11.4497,11.4447,11.4324,11.4593,11.4715,11.4765,11.4133,11.413,11.4127,11.4125,0,0,11.1365,11.1714,11.179,11.204,11.2181,11.2187,11.2449,11.2586,11.2863,11.2959,11.2892,11.3374,11.3514,11.3886,11.3979,11.408,11.4152,11.4054,11.4464,11.4502,11.4536,11.4665,11.4716,11.4121,11.412,11.4119,11.4118,0,11.1254,11.1399,11.1658,11.1804,11.2023,11.2111,11.2173,11.239,11.2463,11.2774,11.2774,11.2977,11.3361,11.3509,11.3634,11.4013,11.4,11.408,11.4246,11.4435,11.4476,11.4512,11.4646,11.4694,11.4112,11.4113,11.4113,0,11.0931,11.1093,11.123,11.1552,11.1695,11.1925,11.1824,11.2072,11.2242,11.2236,11.2545,11.2653,11.286,11.3198,11.3354,11.3297,11.3855,11.3699,11.3718,11.3738,11.3926,11.3975,11.4018,11.3446,11.3443,11.3441,0,0,11.0819,11.1044,11.1245,11.1536,11.1626,11.1761,11.1894,11.1937,11.2124,11.2199,11.2338,11.252,11.2743,11.2889,11.3105,11.346,11.3509,11.3613,11.3644,11.367,11.3702,11.3897,11.3945,11.3431,11.343,11.343,0,0,11.0765,11.101,11.1006,11.1358,11.1537,11.1753,11.1926,11.1925,11.2131,11.2115,11.2196,11.2248,11.2566,11.2673,11.2519,11.3063,11.2939,11.2978,11.2981,11.3023,11.3054,11.3021,11.2439,0,0,0,0,0,11.0709,11.0979,11.0973,11.1049,11.1456,11.1756,11.1808,11.1883,11.1794,11.1929,11.2046,11.2024,11.2607,11.2473,11.2546,11.2716,11.3295,11.3319,11.3342,11.343,11.3472,11.3507,0,0,0,0,0,0,11.0739,11.0832,11.0966,11.1192,11.1284,11.1747,11.1613,11.1641,11.1782,11.1773,11.2002,11.2032,11.21,11.244,11.2505,11.2665,11.2417,11.3305,11.3325,11.3343,11.3445,11.3479,11.3508,0,0,0,0,0,11.0764,11.0839,11.1472,11.1189,11.1269,11.1433,11.1603,11.1625,11.1736,11.1917,11.1945,11.1779,11.2102,11.2162,11.2479,11.2634,11.2373,11.2397,11.3318,11.3334,11.3348,11.3461,0,0,0,0,0,0,11.0782,11.0861,11.1489,11.1516,11.1093,11.1409,11.1461,11.1612,11.1872,11.1903,11.1696,11.1686,11.2108,11.2153,11.2199,11.2619,11.2337,11.2361,11.2376,11.333,11.3343,11.3354,0,0,0,0,0,0,11.0821,11.0884,11.1503,11.1378,11.1391,11.1386,11.1432,11.1712,11.1875,11.1636,11.1636,11.1689,11.2038,11.2148,11.2183,11.2618,11.2309,11.2332,11.2348,11.2359,11.334,11.335,0,0,0,0,0,0,11.0849,11.0903,11.1371,11.1382,11.1393,11.1702,11.1634,11.2046,11.1768,11.1625,11.1745,11.1735,11.2034,11.2071,11.2173,11.2592,11.2611,11.231,11.2326,11.2337,11.2344,0,0,0,0,0,0,0,11.0871,11.0493,11.1329,11.1385,11.1394,11.1767,11.1774,11.1782,11.1766,11.1757,11.1748,11.1739,11.2176,11.2201,11.2227,11.2572,0,0,11.2307,11.2319,0,0,0,0,0,0,0,0,11.0472,11.0488,11.133,11.1335,11.1341,11.1768,11.1774,11.178,11.1764,11.1757,11.175,11.1743,11.2183,11.2203,11.2224,0,0,0,0,0,0,0,0,0,0,0,0,0,0,0,11.133,11.1335,0,11.1769,11.1774,11.1779,11.1763,11.1757,11.1751,11.1745,11.2189,11.2206,11.2223,0,0,0,0,0,0,0,0,0,0,0,0,0,0,0,0,0,0,0,0,0,0,0,0,0,0,0,0,0,0,0,0,0,0,0,0,0,0,0,0,0,0,0,0,0,0,0,0,0,0,0,0,0,0,0,0,0,0,0,0,0,0,0,0,0,0,0,0,0]}],[{"header":{"parameterUnit":"kt","parameterCategory":2,"dx":1,"dy":1,"la1":30.253999710083008,"la2":30.299108505249023,"lo1":-89.0895004272461,"lo2":-89.04439544677734,"nx":28,"ny":28,"refTime":"2022-10-24T21:00:00:Z","depth":0,"parameterNumber":2,"parameterNumberName":"V-component_of_WINDS"},"data":[0.0251,0.0227,0.0221,0.019,0.018,0.0158,0.0148,0.0135,0.0123,0.0096,0.0079,0.0072,0.006,0.0039,0.0021,0.0019,0.0011,0.0004,0.0002,0.0038,0.0043,0.0047,0.0052,0.0002,0.0002,-0.0035,-0.0035,-0.0036,0.0271,0.026,0.0243,0.0223,0.0208,0.021,0.0195,0.0182,0.0163,0.0149,0.0134,0.011,0.0092,0.0082,0.0064,0.0051,0.0052,0.0046,0.0047,0.0045,0.0083,0.0089,0.0045,0.0045,0.0045,0.0045,0.0045,0.0045,0.0304,0.029,0.0276,0.0258,0.0247,0.0233,0.0219,0.0212,0.0196,0.0176,0.0176,0.0154,0.0141,0.0119,0.0111,0.0094,0.0101,0.0094,0.0092,0.009,0.0086,0.0135,0.0091,0.0092,0.0092,0.0092,0.0092,0,0.0327,0.0324,0.0309,0.0291,0.0278,0.0265,0.0253,0.0244,0.0239,0.0227,0.0208,0.0197,0.0175,0.0157,0.0141,0.0135,0.0139,0.014,0.0135,0.0134,0.0133,0.0131,0.0192,0.0142,0.0143,0.0143,0.0143,0.0143,0.0359,0.0345,0.033,0.032,0.0313,0.0297,0.0287,0.0284,0.0273,0.0258,0.0247,0.023,0.0216,0.0189,0.0183,0.0168,0.017,0.0151,0.0168,0.0166,0.0168,0.0168,0.0165,0.0148,0.0147,0.0147,0.0147,0,0.0377,0.0372,0.035,0.0338,0.0334,0.0319,0.0309,0.0296,0.0292,0.0274,0.027,0.0264,0.0247,0.0245,0.0227,0.0227,0.0199,0.0203,0.0202,0.0202,0.0183,0.0184,0.0127,0.0119,0.0172,0.0172,0.0171,0,0.0403,0.0385,0.0379,0.0367,0.0346,0.0345,0.0325,0.032,0.0311,0.0297,0.0301,0.0288,0.0289,0.0275,0.0275,0.0253,0.025,0.0248,0.0248,0.0247,0.0247,0.0243,0.0245,0.0252,0.0252,0.0253,0.0253,0,0.0431,0.0409,0.0389,0.0384,0.0371,0.0361,0.0356,0.0347,0.0339,0.0327,0.0321,0.0309,0.0302,0.0292,0.0292,0.0303,0.0266,0.0282,0.0264,0.0264,0.0257,0.0258,0.0206,0.0253,0.0253,0.0254,0.0254,0,0.0452,0.0441,0.0413,0.0402,0.0397,0.0385,0.0372,0.0361,0.0352,0.0351,0.0343,0.0347,0.033,0.0345,0.0321,0.0335,0.0328,0.0325,0.0324,0.0323,0.034,0.031,0.0262,0.0256,0.0319,0.032,0.032,0,0.0484,0.0457,0.0457,0.0432,0.0419,0.0424,0.0411,0.0404,0.0401,0.039,0.0388,0.0377,0.0388,0.0385,0.0373,0.0371,0.0352,0.0374,0.0357,0.0356,0.0357,0.0313,0.0306,0.0272,0.0328,0.0327,0.0326,0,0.051,0.0497,0.0493,0.0486,0.0478,0.0469,0.0454,0.0442,0.0434,0.0428,0.0414,0.04,0.0407,0.0403,0.0406,0.0394,0.0365,0.0405,0.0405,0.0396,0.0333,0.0325,0.0319,0.037,0.0369,0.0368,0.0332,0,0.0538,0.0526,0.0515,0.0505,0.0498,0.0484,0.0484,0.0477,0.048,0.0479,0.0461,0.0459,0.045,0.0445,0.045,0.0423,0.0428,0.0438,0.0453,0.0425,0.0413,0.0408,0.0471,0.0471,0.0471,0.0472,0,0,0.057,0.0553,0.0557,0.0543,0.0538,0.0546,0.0531,0.0527,0.052,0.0515,0.0524,0.0504,0.0503,0.0482,0.0473,0.0471,0.0465,0.0477,0.0439,0.0435,0.0432,0.0419,0.0414,0.0473,0.0473,0.0473,0.0473,0,0.0581,0.0579,0.0564,0.056,0.0554,0.0555,0.0551,0.0548,0.0548,0.0532,0.0541,0.0531,0.0518,0.0514,0.0511,0.0479,0.0487,0.0476,0.0457,0.0443,0.0439,0.0435,0.0422,0.0417,0.0474,0.0474,0.0474,0,0.0605,0.0603,0.0597,0.0586,0.0584,0.0573,0.0588,0.0577,0.0568,0.0583,0.0568,0.0567,0.0564,0.0546,0.0538,0.0546,0.0506,0.0521,0.0519,0.0518,0.0505,0.05,0.0495,0.0554,0.0555,0.0555,0,0,0.0615,0.0605,0.0604,0.0589,0.0587,0.0589,0.0584,0.0588,0.0585,0.0584,0.0584,0.0581,0.0573,0.0568,0.0561,0.0541,0.054,0.0531,0.0527,0.0524,0.0522,0.0507,0.0502,0.0556,0.0556,0.0556,0,0,0.0621,0.0618,0.0623,0.0606,0.0601,0.0601,0.0591,0.0597,0.0592,0.0594,0.0602,0.0602,0.0585,0.0586,0.0598,0.0567,0.0582,0.058,0.0567,0.0563,0.0559,0.0559,0.0616,0,0,0,0,0,0.0634,0.0618,0.0622,0.062,0.0609,0.0598,0.0597,0.0602,0.0611,0.0604,0.0605,0.0615,0.0593,0.0604,0.0602,0.0589,0.0568,0.0566,0.0564,0.0543,0.0538,0.0534,0,0,0,0,0,0,0.0633,0.063,0.0622,0.0621,0.0619,0.0598,0.0616,0.0617,0.0612,0.0614,0.0614,0.0615,0.0621,0.0606,0.0604,0.0591,0.0617,0.0568,0.0566,0.0564,0.0542,0.0538,0.0534,0,0,0,0,0,0.0632,0.063,0.0612,0.0621,0.0619,0.0622,0.0616,0.0617,0.0614,0.0618,0.0619,0.0619,0.062,0.0619,0.0605,0.0592,0.0618,0.0617,0.0566,0.0565,0.0563,0.054,0,0,0,0,0,0,0.0632,0.0631,0.0612,0.0611,0.0628,0.0624,0.0623,0.0618,0.0618,0.0619,0.0623,0.0624,0.062,0.0619,0.0618,0.0591,0.0619,0.0618,0.0618,0.0565,0.0564,0.0563,0,0,0,0,0,0,0.0632,0.063,0.0611,0.062,0.0621,0.0625,0.0624,0.0614,0.0618,0.0623,0.0625,0.0623,0.0622,0.0619,0.0618,0.0602,0.062,0.0619,0.0619,0.0618,0.0564,0.0563,0,0,0,0,0,0,0.0631,0.063,0.062,0.0621,0.0621,0.0617,0.0616,0.0606,0.0624,0.0623,0.0626,0.0627,0.0621,0.0621,0.0618,0.0602,0.0602,0.062,0.062,0.0619,0.0619,0,0,0,0,0,0,0,0.0631,0.064,0.0614,0.0621,0.0622,0.0608,0.0607,0.0607,0.0624,0.0625,0.0626,0.0626,0.0624,0.0623,0.0623,0.0602,0,0,0.062,0.062,0,0,0,0,0,0,0,0,0.064,0.064,0.0614,0.0614,0.0614,0.0608,0.0607,0.0607,0.0624,0.0625,0.0625,0.0626,0.0624,0.0623,0.0623,0,0,0,0,0,0,0,0,0,0,0,0,0,0,0,0.0614,0.0614,0,0.0607,0.0607,0.0607,0.0624,0.0625,0.0625,0.0626,0.0624,0.0623,0.0623,0,0,0,0,0,0,0,0,0,0,0,0,0,0,0,0,0,0,0,0,0,0,0,0,0,0,0,0,0,0,0,0,0,0,0,0,0,0,0,0,0,0,0,0,0,0,0,0,0,0,0,0,0,0,0,0,0,0,0,0,0,0,0,0,0,0,0,0,0]}]]]